Location: Squirrel Cove
(50.1074°N, 124.9139°W)
Time: 13:43:21
(UTC-07:00)

PCSat - Pass Details

Date: 23 May 2022
Orbit: 784 x 795 km, 67.1° (Epoch: 26 June)

Event Time Altitude Azimuth Distance (km) Brightness Sun altitude
Rises 03:39:57 0° 322° (NW) 3,306 13.0 -12.5°
Reaches altitude 10° 03:42:23 10° 320° (NW) 2,373 12.2 -12.3°
Maximum altitude 03:47:47 66° 239° (WSW) 869 9.5 -11.8°
Drops below altitude 10° 03:53:08 10° 158° (SSE) 2,356 11.7 -11.2°
Sets 03:55:33 0° 156° (SSE) 3,280 12.5 -11.0°
